Fairbanks, AK

11:25 PM AKDT on August 24, 2019 (GMT -0800)
Fairbanks International

Weather History for PAFA - December, 1974

Change the Weather History Date:

Sunday, December 1, 1974

  Actual Average Record
Temperature  
Mean Temperature 2 °F -2 °F  
Max Temperature 3 °F 7 °F 37 °F (1976)
Min Temperature 0 °F -11 °F -47 °F (1990)
Degree Days  
Heating Degree Days 64 67  
Month to date heating degree days 67  
Since 1 July heating degree days 4198  
Cooling Degree Days 0 0  
Month to date cooling degree days 0  
Year to date cooling degree days 61  
Moisture  
Dew Point -11 °F    
Average Humidity 58    
Maximum Humidity 66    
Minimum Humidity 47    
Precipitation  
Precipitation 0.01 in 0.02 in 0.37 in (1919)
Month to date precipitation 0.02  
Year to date precipitation 10.19  
Snow  
Snow 0.00 in 0.40 in 3.90 in (1954)
Month to date snowfall 0.4  
Since 1 July snowfall 26.2  
Snow Depth -    
Sea Level Pressure  
Sea Level Pressure 30.17 in    
Wind  
Wind Speed 5 mph (North)    
Max Wind Speed 15 mph    
Max Gust Speed -    
Visibility 7 miles    
Events Snow    
T = Trace of Precipitation, MM = Missing Value Source: NWS Daily Summary

Daily Weather History Graph

Daily Weather History Graph

Search for Another Location

Airport or City:

Astronomy

Dec. 01, 1974 Rise Set
Actual Time 9:18 AM AHST 2:01 PM AHST
Civil Twilight 8:04 AM AHST 3:16 PM AHST
Nautical Twilight 6:56 AM AHST 4:24 PM AHST
Astronomical Twilight 5:56 AM AHST 5:24 PM AHST
Moon 4:37 PM AHST (12/1) 11:18 AM AHST (12/1)
Length of Visible Light 7h 12m
Length of Day
4h 42m
Waning Gibbous, 93% of the Moon is Illuminated
Dec 1
Waning Gibbous
Dec 6
Last Quarter
Dec 13
New
Dec 21
First Quarter
Dec 28
Full

Hourly Weather History & Observations

Time (AHST) Temp. Windchill Dew Point Humidity Pressure Visibility Wind Dir Wind Speed Gust Speed Precip Events Conditions
12:00 AM 3.9 °F -5.3 °F -6.0 °F 64% 30.16 in 5.0 mi North 4.6 mph - N/A Snow Light Snow
1:00 AM 3.9 °F -6.9 °F -9.0 °F 55% 30.17 in 5.0 mi North 5.8 mph - N/A Snow Light Snow
2:00 AM 3.9 °F -8.2 °F -9.0 °F 55% 30.17 in 7.0 mi NNW 6.9 mph - N/A Snow Light Snow
3:00 AM 3.9 °F -9.4 °F -8.0 °F 58% 30.17 in 10.0 mi North 8.1 mph - N/A Snow Light Snow
4:00 AM 3.0 °F -8.0 °F -8.0 °F 60% 30.18 in 10.0 mi SW 5.8 mph - N/A Snow Light Snow
5:00 AM - - - N/A% 30.18 in 10.0 mi SSW 5.8 mph - N/A   Unknown
6:00 AM -0.0 °F -9.9 °F -9.9 °F 63% 30.18 in 7.0 mi SSW 4.6 mph - N/A Snow Light Snow
7:00 AM -0.0 °F -7.9 °F -9.9 °F 63% 30.18 in 7.0 mi SSW 3.5 mph - N/A Snow Light Snow
8:00 AM -0.0 °F -9.9 °F -9.9 °F 63% 30.19 in 7.0 mi SSW 4.6 mph - N/A Snow Light Snow
9:00 AM -0.0 °F - -9.9 °F 63% 30.20 in 5.0 mi Calm Calm - N/A Snow Light Snow
10:00 AM - - - N/A% 30.21 in 6.0 mi Calm Calm - N/A   Unknown
11:00 AM -0.0 °F - -9.9 °F 63% 30.21 in 7.0 mi Calm Calm - N/A Snow Light Snow
12:00 PM 1.0 °F -6.7 °F -9.0 °F 63% 30.20 in 7.0 mi NE 3.5 mph - N/A Snow Light Snow
12:15 PM - - - N/A% 30.15 in 3.0 mi Calm Calm - N/A   Unknown
12:27 PM - - - N/A% 30.15 in 2.0 mi Calm Calm - N/A   Unknown
1:00 PM 1.0 °F -6.7 °F -8.0 °F 66% 30.19 in 2.0 mi NE 3.5 mph - 0.01 in Snow Light Snow
1:43 PM - - - N/A% 30.14 in 3.0 mi NE 4.6 mph - N/A   Unknown
2:00 PM 1.0 °F -8.7 °F -8.0 °F 66% 30.19 in 3.0 mi NNE 4.6 mph - N/A Snow Light Snow
3:00 PM 1.0 °F -10.3 °F -9.9 °F 60% 30.18 in 7.0 mi North 5.8 mph - N/A Snow Light Snow
4:00 PM -0.0 °F -13.0 °F -11.9 °F 57% 30.17 in 7.0 mi North 6.9 mph - N/A Snow Light Snow
5:00 PM 1.0 °F -15.8 °F -11.9 °F 55% 30.17 in 7.0 mi NNE 11.5 mph - N/A Snow Light Snow
6:00 PM 1.0 °F -16.6 °F -13.0 °F 52% 30.16 in 10.0 mi North 12.7 mph - N/A   Overcast
7:00 PM 1.0 °F -18.0 °F -13.0 °F 52% 30.16 in 7.0 mi North 15.0 mph - N/A Snow Light Snow
8:00 PM 1.0 °F -15.8 °F -13.0 °F 52% 30.16 in 7.0 mi North 11.5 mph - N/A Snow Light Snow
9:00 PM 1.0 °F -14.0 °F -14.1 °F 49% 30.16 in 7.0 mi North 9.2 mph - N/A Snow Light Snow
10:00 PM -0.0 °F -18.0 °F -15.0 °F 49% 30.16 in 10.0 mi NNE 12.7 mph - N/A Snow Light Snow
11:00 PM -0.0 °F -16.3 °F -16.1 °F 47% 30.16 in 10.0 mi North 10.4 mph - N/A Snow Light Snow